Weather History for Limon, CO

Change the Weather History Date:

Wednesday, January 23, 2013

  Actual Average Record
Temperature  
Mean Temperature 38 °F -  
Max Temperature 66 °F - 68 °F (2005)
Min Temperature 10 °F - -12 °F (2014)
Degree Days  
Heating Degree Days 27    
Month to date heating degree days 993  
Cooling Degree Days 0    
Month to date cooling degree days 0  
Moisture  
Dew Point 5 °F    
Average Humidity 37    
Maximum Humidity 80    
Minimum Humidity 5    
Precipitation  
Precipitation 0.00 in - 0.21 in (2014)
Month to date precipitation 0.16  
Year to date precipitation 0.16  
Sea Level Pressure  
Sea Level Pressure 30.18 in    
Wind  
Wind Speed 5 mph (NNE)    
Max Wind Speed 15 mph    
Max Gust Speed 17 mph    
Visibility 10 miles    
Events      
T = Trace of Precipitation, MM = Missing Value Source: NWS Daily Summary

Daily Weather History Graph

Daily Weather History Graph

Search for Another Location

Airport:

Trip Planner

Search our weather history database for the weather conditions in past years. The results will help you decide how hot, cold, wet, or windy it might be!

Date:

Astronomy

Jan. 23, 2013 Rise Set
Actual Time 7:08 AM MST 5:05 PM MST
Civil Twilight 6:39 AM MST 5:34 PM MST
Nautical Twilight 6:07 AM MST 6:06 PM MST
Astronomical Twilight 5:35 AM MST 6:38 PM MST
Moon 2:17 PM MST (1/23) 4:21 AM MST (1/23)
Length of Visible Light 10h 54m
Length of Day
9h 56m
Waxing Gibbous, 89% of the Moon is Illuminated
Jan 23
Waxing Gibbous
Jan 26
Full
Feb 3
Last Quarter
Feb 10
New
Feb 17
First Quarter

Hourly Weather History & Observations

Time (MST) Temp. Windchill Dew Point Humidity Pressure Visibility Wind Dir Wind Speed Gust Speed Precip Events Conditions
12:55 AM 15.1 °F 5.2 °F 9.0 °F 77% 30.18 in 10.0 mi North 6.9 mph - N/A   Clear
1:55 AM 12.0 °F 2.7 °F 7.0 °F 80% 30.18 in 10.0 mi North 5.8 mph - N/A   Clear
2:55 AM 12.0 °F 5.9 °F 5.0 °F 73% 30.18 in 10.0 mi NNW 3.5 mph - N/A   Clear
3:55 AM 23.0 °F 15.8 °F 1.9 °F 40% 30.12 in 10.0 mi NNW 5.8 mph - N/A   Clear
4:55 AM 30.9 °F 26.2 °F -2.0 °F 24% 30.14 in 10.0 mi Variable 4.6 mph - N/A   Clear
5:55 AM 25.0 °F 17.1 °F -2.0 °F 31% 30.23 in 10.0 mi NNW 6.9 mph - N/A   Clear
6:55 AM 17.1 °F 8.7 °F 3.0 °F 54% 30.30 in 10.0 mi NNW 5.8 mph - N/A   Clear
7:55 AM 36.0 °F 33.3 °F -2.0 °F 20% 30.23 in 10.0 mi Variable 3.5 mph - N/A   Clear
8:55 AM 39.9 °F 36.7 °F 3.9 °F 22% 30.24 in 10.0 mi North 4.6 mph - N/A   Clear
9:55 AM 50.0 °F - 1.0 °F 13% 30.19 in 10.0 mi WNW 3.5 mph - N/A   Clear
10:55 AM 57.0 °F - 3.0 °F 11% 30.19 in 10.0 mi Variable 4.6 mph - N/A   Clear
11:55 AM 61.0 °F - 1.0 °F 9% 30.14 in 10.0 mi North 4.6 mph - N/A   Clear
12:55 PM 63.0 °F - 5.0 °F 10% 30.11 in 10.0 mi NE 3.5 mph - N/A   Clear
1:55 PM 64.9 °F - -7.1 °F 5% 30.11 in 10.0 mi East 6.9 mph - N/A   Clear
3:55 PM 55.9 °F - -0.0 °F 10% 30.10 in 10.0 mi East 11.5 mph - N/A   Clear
4:55 PM 44.1 °F 39.5 °F 5.0 °F 20% 30.13 in 10.0 mi East 8.1 mph - N/A   Clear
5:55 PM 37.9 °F - 3.9 °F 24% 30.20 in 10.0 mi Calm Calm - N/A   Clear
6:55 PM 30.9 °F - 9.0 °F 40% 30.27 in 10.0 mi Calm Calm - N/A   Clear
7:55 PM 26.1 °F - 10.9 °F 53% 30.22 in 10.0 mi Calm Calm - N/A   Clear
8:55 PM 28.9 °F - 10.0 °F 45% 30.19 in 10.0 mi Calm Calm - N/A   Clear
9:55 PM 25.0 °F 19.3 °F 14.0 °F 63% 30.19 in 10.0 mi SSE 4.6 mph - N/A   Clear
10:55 PM 28.0 °F 22.8 °F 14.0 °F 56% 30.16 in 10.0 mi South 4.6 mph - N/A   Clear
11:55 PM 27.0 °F 18.7 °F 16.0 °F 63% 30.13 in 10.0 mi SSE 8.1 mph - N/A   Clear